Time,TemperatureF,DewpointF,PressureIn,WindDirection,WindDirectionDegrees,WindSpeedMPH,WindSpeedGustMPH,Humidity,HourlyPrecipIn,Conditions,Clouds,dailyrainin,SoftwareType,DateUTC
2013-07-31 00:02:00,70.2,68.1,30.18,NNE,22,0.0,0.0,93,0.00,,---,0.00,VWS V14.01,2013-07-31 05:02:00,
2013-07-31 00:07:00,70.0,67.9,30.18,NNE,22,0.0,0.0,93,0.00,,---,0.00,VWS V14.01,2013-07-31 05:07:00,
2013-07-31 00:12:00,70.0,68.2,30.21,NNE,22,0.0,0.0,94,0.00,,---,0.00,VWS V14.01,2013-07-31 05:12:00,
2013-07-31 00:17:00,69.8,68.0,30.21,NNE,22,0.0,0.0,94,0.00,,---,0.00,VWS V14.01,2013-07-31 05:17:00,
2013-07-31 00:22:00,69.8,68.0,30.21,NNE,22,0.0,0.0,94,0.00,,---,0.00,VWS V14.01,2013-07-31 05:22:00,
2013-07-31 00:38:00,69.6,68.1,30.18,NNE,22,0.0,0.0,95,0.00,,---,0.00,VWS V14.01,2013-07-31 05:38:00,
2013-07-31 00:43:00,69.4,67.6,30.18,NNE,22,0.0,0.0,94,0.00,,---,0.00,VWS V14.01,2013-07-31 05:43:00,
2013-07-31 00:48:00,69.4,67.6,30.18,NNE,22,0.0,0.0,94,0.00,,---,0.00,VWS V14.01,2013-07-31 05:48:00,
2013-07-31 00:54:00,69.4,67.6,30.18,NNE,22,0.0,0.0,94,0.00,,---,0.00,VWS V14.01,2013-07-31 05:54:00,
2013-07-31 00:59:00,69.4,67.9,30.18,NNE,22,0.0,0.0,95,0.00,,---,0.00,VWS V14.01,2013-07-31 05:59:00,
2013-07-31 01:05:00,69.4,67.6,30.18,NNE,22,0.0,0.0,94,0.00,,---,0.00,VWS V14.01,2013-07-31 06:05:00,
2013-07-31 01:10:00,69.4,67.9,30.15,NNE,22,0.0,0.9,95,0.00,,---,0.00,VWS V14.01,2013-07-31 06:10:00,
2013-07-31 01:15:00,69.4,67.9,30.15,NNE,22,0.0,0.0,95,0.00,,---,0.00,VWS V14.01,2013-07-31 06:15:00,
2013-07-31 01:20:00,69.4,67.9,30.15,NNE,22,0.0,0.0,95,0.00,,---,0.00,VWS V14.01,2013-07-31 06:20:00,
2013-07-31 01:25:00,69.4,67.9,30.15,NNE,22,0.0,0.0,95,0.00,,---,0.00,VWS V14.01,2013-07-31 06:25:00,
2013-07-31 01:30:00,69.4,67.9,30.15,NNE,22,0.0,0.9,95,0.00,,---,0.00,VWS V14.01,2013-07-31 06:30:00,
2013-07-31 01:35:00,69.3,67.8,30.15,NNE,22,2.0,2.2,95,0.00,,---,0.00,VWS V14.01,2013-07-31 06:35:00,
2013-07-31 01:40:00,69.4,67.9,30.15,NE,45,0.0,0.0,95,0.00,,---,0.00,VWS V14.01,2013-07-31 06:40:00,
2013-07-31 01:45:00,69.4,67.9,30.15,NE,45,2.2,2.7,95,0.00,,---,0.00,VWS V14.01,2013-07-31 06:45:00,
2013-07-31 01:50:00,69.4,67.9,30.15,NNE,22,0.0,0.0,95,0.00,,---,0.00,VWS V14.01,2013-07-31 06:50:00,
2013-07-31 01:55:00,69.4,67.9,30.15,NNE,22,0.0,0.0,95,0.00,,---,0.00,VWS V14.01,2013-07-31 06:55:00,
2013-07-31 02:00:00,69.3,67.8,30.15,NNE,22,0.0,0.0,95,0.00,,---,0.00,VWS V14.01,2013-07-31 07:00:00,
2013-07-31 02:05:00,69.1,67.6,30.15,NNE,22,0.0,0.0,95,0.00,,---,0.00,VWS V14.01,2013-07-31 07:05:00,
2013-07-31 02:10:00,68.9,67.4,30.15,NNE,22,0.0,0.0,95,0.00,,---,0.00,VWS V14.01,2013-07-31 07:10:00,
2013-07-31 02:16:00,68.9,67.4,30.15,NNE,22,0.0,0.0,95,0.00,,---,0.00,VWS V14.01,2013-07-31 07:16:00,
2013-07-31 02:21:00,68.7,67.2,30.15,NNE,22,0.0,0.0,95,0.00,,---,0.00,VWS V14.01,2013-07-31 07:21:00,
2013-07-31 02:27:00,68.7,67.2,30.18,NNE,22,0.0,0.0,95,0.00,,---,0.00,VWS V14.01,2013-07-31 07:27:00,
2013-07-31 02:32:00,68.5,67.1,30.18,NNE,22,0.0,0.0,95,0.00,,---,0.00,VWS V14.01,2013-07-31 07:32:00,
2013-07-31 02:37:00,68.5,67.1,30.18,NNE,22,0.0,0.0,95,0.00,,---,0.00,VWS V14.01,2013-07-31 07:37:00,
2013-07-31 02:42:00,68.5,67.1,30.18,NNE,22,0.0,0.0,95,0.00,,---,0.00,VWS V14.01,2013-07-31 07:42:00,
2013-07-31 02:47:00,68.4,66.9,30.18,NNE,22,2.7,2.7,95,0.00,,---,0.00,VWS V14.01,2013-07-31 07:47:00,
2013-07-31 02:52:00,68.4,66.9,30.18,North,0,0.0,0.0,95,0.00,,---,0.00,VWS V14.01,2013-07-31 07:52:00,
2013-07-31 02:57:00,68.5,67.1,30.21,NNE,22,0.0,0.0,95,0.00,,---,0.00,VWS V14.01,2013-07-31 07:57:00,
2013-07-31 03:02:00,68.5,67.1,30.21,North,0,0.0,0.0,95,0.00,,---,0.00,VWS V14.01,2013-07-31 08:02:00,
2013-07-31 03:07:00,68.4,66.9,30.21,North,0,0.0,0.0,95,0.00,,---,0.00,VWS V14.01,2013-07-31 08:07:00,
2013-07-31 03:12:00,68.4,66.9,30.21,NE,45,0.0,0.0,95,0.00,,---,0.00,VWS V14.01,2013-07-31 08:12:00,
2013-07-31 03:17:00,68.2,66.7,30.21,NE,45,0.0,0.0,95,0.00,,---,0.00,VWS V14.01,2013-07-31 08:17:00,
2013-07-31 03:22:00,68.4,66.9,30.21,NE,45,0.0,0.0,95,0.00,,---,0.00,VWS V14.01,2013-07-31 08:22:00,
2013-07-31 03:27:00,68.2,66.7,30.18,ENE,68,0.0,0.0,95,0.00,,---,0.00,VWS V14.01,2013-07-31 08:27:00,
2013-07-31 03:32:00,68.2,66.7,30.18,ENE,68,0.0,0.0,95,0.00,,---,0.00,VWS V14.01,2013-07-31 08:32:00,
2013-07-31 03:37:00,68.2,66.7,30.18,ENE,68,0.0,0.0,95,0.00,,---,0.00,VWS V14.01,2013-07-31 08:37:00,
2013-07-31 03:42:00,68.0,66.5,30.18,NE,45,0.0,0.0,95,0.00,,---,0.00,VWS V14.01,2013-07-31 08:42:00,
2013-07-31 03:47:00,67.8,66.6,30.18,NE,45,0.0,0.0,96,0.00,,---,0.00,VWS V14.01,2013-07-31 08:47:00,
2013-07-31 03:52:00,67.8,66.6,30.18,NE,45,0.0,0.0,96,0.00,,---,0.00,VWS V14.01,2013-07-31 08:52:00,
2013-07-31 03:57:00,67.8,66.6,30.18,North,0,0.0,0.0,96,0.00,,---,0.00,VWS V14.01,2013-07-31 08:57:00,
2013-07-31 04:02:00,67.6,66.5,30.18,North,0,0.0,0.0,96,0.00,,---,0.00,VWS V14.01,2013-07-31 09:02:00,
2013-07-31 04:07:00,67.6,66.5,30.18,NW,315,0.0,0.0,96,0.00,,---,0.00,VWS V14.01,2013-07-31 09:07:00,
2013-07-31 04:12:00,67.5,66.3,30.15,NW,315,0.0,0.0,96,0.00,,---,0.00,VWS V14.01,2013-07-31 09:12:00,
2013-07-31 04:15:00,67.3,66.1,30.15,NW,315,0.0,0.0,96,0.00,,---,0.00,VWS V14.01,2013-07-31 09:15:00,
2013-07-31 04:20:00,66.9,65.8,30.15,NW,315,0.0,0.0,96,0.00,,---,0.00,VWS V14.01,2013-07-31 09:20:00,
2013-07-31 04:25:00,66.7,65.3,30.15,NW,315,0.0,0.0,95,0.00,,---,0.00,VWS V14.01,2013-07-31 09:25:00,
2013-07-31 04:30:00,66.7,65.6,30.15,NW,315,0.0,0.0,96,0.00,,---,0.00,VWS V14.01,2013-07-31 09:30:00,
2013-07-31 04:37:00,66.7,65.6,30.15,NW,315,0.0,0.0,96,0.00,,---,0.00,VWS V14.01,2013-07-31 09:37:00,
2013-07-31 04:42:00,66.7,65.6,30.15,NW,315,0.0,0.0,96,0.00,,---,0.00,VWS V14.01,2013-07-31 09:42:00,
2013-07-31 04:47:00,66.6,65.4,30.15,NW,315,0.0,0.0,96,0.00,,---,0.00,VWS V14.01,2013-07-31 09:47:00,
2013-07-31 04:52:00,66.7,65.6,30.15,North,0,0.0,0.0,96,0.00,,---,0.00,VWS V14.01,2013-07-31 09:52:00,
2013-07-31 04:57:00,66.6,65.4,30.18,North,0,0.0,0.0,96,0.00,,---,0.00,VWS V14.01,2013-07-31 09:57:00,
2013-07-31 05:02:00,66.6,65.4,30.18,North,0,0.0,0.0,96,0.00,,---,0.00,VWS V14.01,2013-07-31 10:02:00,
2013-07-31 05:07:00,66.4,65.2,30.18,North,0,0.0,0.0,96,0.00,,---,0.00,VWS V14.01,2013-07-31 10:07:00,
2013-07-31 05:12:00,66.4,65.2,30.18,North,0,0.0,0.0,96,0.00,,---,0.00,VWS V14.01,2013-07-31 10:12:00,
2013-07-31 05:18:00,66.4,65.2,30.18,North,0,0.0,0.0,96,0.00,,---,0.00,VWS V14.01,2013-07-31 10:18:00,
2013-07-31 05:23:00,66.4,65.2,30.18,North,0,0.0,0.0,96,0.00,,---,0.00,VWS V14.01,2013-07-31 10:23:00,
2013-07-31 05:28:00,66.4,65.2,30.21,North,0,0.0,0.0,96,0.00,,---,0.00,VWS V14.01,2013-07-31 10:28:00,
2013-07-31 05:33:00,66.4,65.2,30.21,North,0,0.0,0.0,96,0.00,,---,0.00,VWS V14.01,2013-07-31 10:33:00,
2013-07-31 05:39:00,66.4,65.2,30.21,North,0,0.0,0.0,96,0.00,,---,0.00,VWS V14.01,2013-07-31 10:39:00,
2013-07-31 05:44:00,66.4,65.2,30.21,North,0,0.0,0.0,96,0.00,,---,0.00,VWS V14.01,2013-07-31 10:44:00,
2013-07-31 05:49:00,66.4,65.2,30.21,North,0,0.0,0.0,96,0.00,,---,0.00,VWS V14.01,2013-07-31 10:49:00,
2013-07-31 05:54:00,66.4,65.2,30.21,North,0,0.0,0.0,96,0.00,,---,0.00,VWS V14.01,2013-07-31 10:54:00,
2013-07-31 05:59:00,66.4,65.2,30.21,NNW,338,0.0,0.0,96,0.00,,---,0.00,VWS V14.01,2013-07-31 10:59:00,
2013-07-31 06:05:00,66.2,65.0,30.21,NNW,338,0.0,0.0,96,0.00,,---,0.00,VWS V14.01,2013-07-31 11:05:00,
2013-07-31 06:10:00,66.2,65.0,30.21,NNW,338,0.0,0.0,96,0.00,,---,0.00,VWS V14.01,2013-07-31 11:10:00,
2013-07-31 06:15:00,66.2,65.0,30.21,NNW,338,0.0,0.0,96,0.00,,---,0.00,VWS V14.01,2013-07-31 11:15:00,
2013-07-31 06:20:00,66.2,65.0,30.21,North,0,0.0,0.0,96,0.00,,---,0.00,VWS V14.01,2013-07-31 11:20:00,
2013-07-31 06:25:00,66.2,65.0,30.18,North,0,0.0,0.0,96,0.00,,---,0.00,VWS V14.01,2013-07-31 11:25:00,
2013-07-31 06:30:00,66.2,65.0,30.18,North,0,0.0,0.0,96,0.00,,---,0.00,VWS V14.01,2013-07-31 11:30:00,
2013-07-31 06:35:00,66.0,64.8,30.18,North,0,0.0,0.0,96,0.00,,---,0.00,VWS V14.01,2013-07-31 11:35:00,
2013-07-31 06:40:00,66.0,65.2,30.18,North,0,0.0,0.0,97,0.00,,---,0.00,VWS V14.01,2013-07-31 11:40:00,
2013-07-31 06:45:00,66.2,65.0,30.18,North,0,0.0,3.6,96,0.00,,---,0.00,VWS V14.01,2013-07-31 11:45:00,
2013-07-31 06:50:00,66.2,65.0,30.18,NNW,338,0.0,0.0,96,0.00,,---,0.00,VWS V14.01,2013-07-31 11:50:00,
2013-07-31 06:55:00,66.2,65.0,30.21,North,0,0.0,4.0,96,0.00,,---,0.00,VWS V14.01,2013-07-31 11:55:00,
2013-07-31 07:00:00,66.2,65.0,30.21,NNW,338,2.5,2.5,96,0.00,,---,0.00,VWS V14.01,2013-07-31 12:00:00,
2013-07-31 07:05:00,66.4,65.2,30.21,North,0,0.0,0.0,96,0.00,,---,0.00,VWS V14.01,2013-07-31 12:05:00,
2013-07-31 07:10:00,66.7,65.9,30.24,North,0,0.0,2.9,97,0.00,,---,0.00,VWS V14.01,2013-07-31 12:10:00,
2013-07-31 07:15:00,66.9,66.0,30.24,NE,45,0.0,3.6,97,0.00,,---,0.00,VWS V14.01,2013-07-31 12:15:00,
2013-07-31 07:20:00,67.1,66.2,30.24,NNW,338,0.0,0.0,97,0.00,,---,0.00,VWS V14.01,2013-07-31 12:20:00,
2013-07-31 07:25:00,67.3,66.4,30.24,NW,315,0.0,0.0,97,0.00,,---,0.00,VWS V14.01,2013-07-31 12:25:00,
2013-07-31 07:30:00,67.5,66.6,30.24,North,0,0.0,0.0,97,0.00,,---,0.00,VWS V14.01,2013-07-31 12:30:00,
2013-07-31 07:35:00,67.6,66.8,30.24,North,0,0.0,0.0,97,0.00,,---,0.00,VWS V14.01,2013-07-31 12:35:00,
2013-07-31 07:41:00,68.0,66.8,30.24,NNW,338,0.0,0.0,96,0.00,,---,0.00,VWS V14.01,2013-07-31 12:41:00,
2013-07-31 07:47:00,68.2,67.0,30.24,NNW,338,0.0,0.0,96,0.00,,---,0.00,VWS V14.01,2013-07-31 12:47:00,
2013-07-31 07:52:00,68.4,67.2,30.24,NNE,22,0.0,0.0,96,0.00,,---,0.00,VWS V14.01,2013-07-31 12:52:00,
2013-07-31 07:57:00,68.4,67.2,30.24,NNE,22,0.0,0.0,96,0.00,,---,0.00,VWS V14.01,2013-07-31 12:57:00,
2013-07-31 08:02:00,68.5,67.4,30.24,ENE,68,0.0,0.0,96,0.00,,---,0.00,VWS V14.01,2013-07-31 13:02:00,
2013-07-31 08:07:00,68.7,67.5,30.24,NNE,22,0.0,0.0,96,0.00,,---,0.00,VWS V14.01,2013-07-31 13:07:00,
2013-07-31 08:12:00,69.1,67.9,30.21,NNE,22,0.0,0.0,96,0.00,,---,0.00,VWS V14.01,2013-07-31 13:12:00,
2013-07-31 08:17:00,69.3,68.1,30.21,East,90,0.0,0.0,96,0.00,,---,0.00,VWS V14.01,2013-07-31 13:17:00,
2013-07-31 08:22:00,69.3,68.1,30.21,East,90,0.0,0.0,96,0.00,,---,0.00,VWS V14.01,2013-07-31 13:22:00,
2013-07-31 08:27:00,69.4,68.2,30.21,East,90,0.0,0.0,96,0.00,,---,0.00,VWS V14.01,2013-07-31 13:27:00,
2013-07-31 08:32:00,70.0,68.8,30.21,SE,135,0.0,0.0,96,0.00,,---,0.00,VWS V14.01,2013-07-31 13:32:00,
2013-07-31 08:38:00,70.2,69.0,30.21,ESE,112,0.0,0.0,96,0.00,,---,0.00,VWS V14.01,2013-07-31 13:38:00,
2013-07-31 08:43:00,70.3,69.2,30.21,ENE,68,0.0,0.0,96,0.00,,---,0.00,VWS V14.01,2013-07-31 13:43:00,
2013-07-31 08:48:00,70.7,69.5,30.21,NE,45,0.0,0.0,96,0.00,,---,0.00,VWS V14.01,2013-07-31 13:48:00,
2013-07-31 08:53:00,71.1,69.6,30.21,East,90,0.0,0.0,95,0.00,,---,0.00,VWS V14.01,2013-07-31 13:53:00,
2013-07-31 08:58:00,71.6,70.1,30.21,SE,135,0.0,0.0,95,0.00,,---,0.00,VWS V14.01,2013-07-31 13:58:00,
2013-07-31 09:03:00,72.7,71.2,30.21,East,90,0.0,0.0,95,0.00,,---,0.00,VWS V14.01,2013-07-31 14:03:00,
2013-07-31 09:08:00,74.5,72.6,30.21,East,90,0.0,0.0,94,0.00,,---,0.00,VWS V14.01,2013-07-31 14:08:00,
2013-07-31 09:13:00,76.3,73.1,30.24,ESE,112,0.0,0.0,90,0.00,,---,0.00,VWS V14.01,2013-07-31 14:13:00,
2013-07-31 09:18:00,77.4,73.2,30.24,NE,45,0.0,0.0,87,0.00,,---,0.00,VWS V14.01,2013-07-31 14:18:00,
2013-07-31 09:23:00,78.6,73.7,30.24,ENE,68,0.0,0.0,85,0.00,,---,0.00,VWS V14.01,2013-07-31 14:23:00,
2013-07-31 09:28:00,79.5,73.2,30.21,East,90,0.0,0.0,81,0.00,,---,0.00,VWS V14.01,2013-07-31 14:28:00,
2013-07-31 09:33:00,80.8,72.9,30.21,SE,135,0.0,0.0,77,0.00,,---,0.00,VWS V14.01,2013-07-31 14:33:00,
2013-07-31 09:38:00,81.1,72.1,30.21,North,0,0.0,0.0,74,0.00,,---,0.00,VWS V14.01,2013-07-31 14:38:00,
2013-07-31 09:43:00,81.3,71.0,30.21,ENE,68,0.0,0.0,71,0.00,,---,0.00,VWS V14.01,2013-07-31 14:43:00,
2013-07-31 09:48:00,82.2,72.3,30.21,East,90,0.0,0.0,72,0.00,,---,0.00,VWS V14.01,2013-07-31 14:48:00,
2013-07-31 09:53:00,82.6,71.0,30.21,East,90,4.0,4.3,68,0.00,,---,0.00,VWS V14.01,2013-07-31 14:53:00,
2013-07-31 09:58:00,82.8,71.6,30.21,North,0,0.9,3.1,69,0.00,,---,0.00,VWS V14.01,2013-07-31 14:58:00,
2013-07-31 10:03:00,84.0,72.3,30.21,NNW,338,0.0,0.0,68,0.00,,---,0.00,VWS V14.01,2013-07-31 15:03:00,
2013-07-31 10:08:00,85.6,73.4,30.21,NE,45,0.0,0.0,67,0.00,,---,0.00,VWS V14.01,2013-07-31 15:08:00,
2013-07-31 10:13:00,85.1,72.5,30.21,East,90,0.0,3.6,66,0.00,,---,0.00,VWS V14.01,2013-07-31 15:13:00,
2013-07-31 10:18:00,84.7,70.3,30.21,ENE,68,0.0,4.0,62,0.00,,---,0.00,VWS V14.01,2013-07-31 15:18:00,
2013-07-31 10:23:00,83.7,70.2,30.21,East,90,2.7,3.8,64,0.00,,---,0.00,VWS V14.01,2013-07-31 15:23:00,
2013-07-31 10:28:00,83.3,70.3,30.21,East,90,1.1,4.3,65,0.00,,---,0.00,VWS V14.01,2013-07-31 15:28:00,
2013-07-31 10:33:00,82.2,69.7,30.21,ENE,68,0.0,0.0,66,0.00,,---,0.00,VWS V14.01,2013-07-31 15:33:00,
2013-07-31 10:38:00,82.2,70.2,30.21,NE,45,3.1,5.6,67,0.00,,---,0.00,VWS V14.01,2013-07-31 15:38:00,
2013-07-31 10:43:00,83.3,70.8,30.21,East,90,4.3,4.3,66,0.00,,---,0.00,VWS V14.01,2013-07-31 15:43:00,
2013-07-31 10:48:00,83.7,70.2,30.21,NE,45,6.0,7.6,64,0.00,,---,0.00,VWS V14.01,2013-07-31 15:48:00,
2013-07-31 10:53:00,84.4,70.9,30.21,ENE,68,3.6,3.6,64,0.00,,---,0.00,VWS V14.01,2013-07-31 15:53:00,
2013-07-31 10:58:00,83.8,70.8,30.21,ENE,68,2.7,3.1,65,0.00,,---,0.00,VWS V14.01,2013-07-31 15:58:00,
2013-07-31 11:03:00,82.8,68.9,30.21,ENE,68,4.3,4.3,63,0.00,,---,0.00,VWS V14.01,2013-07-31 16:03:00,
2013-07-31 11:08:00,84.7,70.3,30.21,ENE,68,6.5,6.5,62,0.00,,---,0.00,VWS V14.01,2013-07-31 16:08:00,
2013-07-31 11:13:00,86.9,71.3,30.21,NNE,22,0.0,2.0,60,0.00,,---,0.00,VWS V14.01,2013-07-31 16:13:00,
2013-07-31 11:18:00,87.1,70.5,30.21,ENE,68,5.4,5.4,58,0.00,,---,0.00,VWS V14.01,2013-07-31 16:18:00,
2013-07-31 11:23:00,85.6,69.2,30.21,NE,45,3.6,5.6,58,0.00,,---,0.00,VWS V14.01,2013-07-31 16:23:00,
2013-07-31 11:28:00,86.5,70.0,30.24,NE,45,3.1,6.0,58,0.00,,---,0.00,VWS V14.01,2013-07-31 16:28:00,
2013-07-31 11:33:00,86.9,68.8,30.24,ENE,68,5.6,6.3,55,0.00,,---,0.00,VWS V14.01,2013-07-31 16:33:00,
2013-07-31 11:38:00,88.9,70.6,30.24,SSE,158,4.0,4.0,55,0.00,,---,0.00,VWS V14.01,2013-07-31 16:38:00,
2013-07-31 11:43:00,89.1,68.0,30.24,ENE,68,3.8,8.5,50,0.00,,---,0.00,VWS V14.01,2013-07-31 16:43:00,
2013-07-31 11:48:00,88.5,68.1,30.24,East,90,4.3,6.5,51,0.00,,---,0.00,VWS V14.01,2013-07-31 16:48:00,
2013-07-31 11:53:00,86.7,68.1,30.24,East,90,5.8,6.5,54,0.00,,---,0.00,VWS V14.01,2013-07-31 16:53:00,
2013-07-31 11:58:00,86.2,68.1,30.21,NE,45,1.1,3.4,55,0.00,,---,0.00,VWS V14.01,2013-07-31 16:58:00,
2013-07-31 12:03:00,86.7,68.6,30.21,ENE,68,3.1,4.3,55,0.00,,---,0.00,VWS V14.01,2013-07-31 17:03:00,
2013-07-31 12:08:00,86.4,68.3,30.21,NNE,22,2.7,4.3,55,0.00,,---,0.00,VWS V14.01,2013-07-31 17:08:00,
2013-07-31 12:13:00,85.3,66.2,30.24,NE,45,5.6,6.3,53,0.00,,---,0.00,VWS V14.01,2013-07-31 17:13:00,
2013-07-31 12:18:00,88.2,69.4,30.24,ENE,68,4.3,4.7,54,0.00,,---,0.00,VWS V14.01,2013-07-31 17:18:00,
2013-07-31 12:23:00,88.3,66.8,30.24,East,90,7.2,7.4,49,0.00,,---,0.00,VWS V14.01,2013-07-31 17:23:00,
2013-07-31 12:28:00,88.7,67.7,30.24,ENE,68,4.9,7.2,50,0.00,,---,0.00,VWS V14.01,2013-07-31 17:28:00,
2013-07-31 12:33:00,88.9,66.7,30.24,ENE,68,1.1,3.4,48,0.00,,---,0.00,VWS V14.01,2013-07-31 17:33:00,
2013-07-31 12:38:00,88.9,67.3,30.24,ENE,68,4.0,7.4,49,0.00,,---,0.00,VWS V14.01,2013-07-31 17:38:00,
2013-07-31 12:44:00,88.9,67.8,30.21,ENE,68,6.5,6.5,50,0.00,,---,0.00,VWS V14.01,2013-07-31 17:44:00,
2013-07-31 12:49:00,87.1,67.3,30.21,NNE,22,5.6,7.2,52,0.00,,---,0.00,VWS V14.01,2013-07-31 17:49:00,
2013-07-31 12:55:00,88.2,67.8,30.21,North,0,3.1,6.3,51,0.00,,---,0.00,VWS V14.01,2013-07-31 17:55:00,
2013-07-31 13:00:00,88.3,68.5,30.21,NE,45,3.1,6.3,52,0.00,,---,0.00,VWS V14.01,2013-07-31 18:00:00,
2013-07-31 13:05:00,89.2,66.4,30.21,ENE,68,2.9,5.8,47,0.00,,---,0.00,VWS V14.01,2013-07-31 18:05:00,
2013-07-31 13:10:00,90.7,67.7,30.21,NE,45,2.7,2.7,47,0.00,,---,0.00,VWS V14.01,2013-07-31 18:10:00,
2013-07-31 13:15:00,90.0,66.4,30.21,NE,45,3.6,6.3,46,0.00,,---,0.00,VWS V14.01,2013-07-31 18:15:00,
2013-07-31 13:20:00,90.3,66.1,30.21,NE,45,0.9,6.3,45,0.00,,---,0.00,VWS V14.01,2013-07-31 18:20:00,
2013-07-31 13:25:00,89.4,64.7,30.18,NE,45,5.6,6.9,44,0.00,,---,0.00,VWS V14.01,2013-07-31 18:25:00,
2013-07-31 13:30:00,89.2,64.5,30.18,NE,45,2.9,6.5,44,0.00,,---,0.00,VWS V14.01,2013-07-31 18:30:00,
2013-07-31 13:36:00,91.0,66.1,30.18,NE,45,0.0,2.5,44,0.00,,---,0.00,VWS V14.01,2013-07-31 18:36:00,
2013-07-31 13:42:00,91.4,66.4,30.21,NE,45,3.6,4.0,44,0.00,,---,0.00,VWS V14.01,2013-07-31 18:42:00,
2013-07-31 13:47:00,91.8,66.8,30.21,NNW,338,2.0,3.6,44,0.00,,---,0.00,VWS V14.01,2013-07-31 18:47:00,
2013-07-31 13:52:00,91.9,66.9,30.21,NE,45,0.0,2.5,44,0.00,,---,0.00,VWS V14.01,2013-07-31 18:52:00,
2013-07-31 13:57:00,91.4,65.8,30.21,SSE,158,3.4,3.8,43,0.00,,---,0.00,VWS V14.01,2013-07-31 18:57:00,
2013-07-31 14:02:00,90.9,65.3,30.21,SE,135,3.6,7.4,43,0.00,,---,0.00,VWS V14.01,2013-07-31 19:02:00,
2013-07-31 14:08:00,91.9,66.3,30.21,SE,135,0.0,2.9,43,0.00,,---,0.00,VWS V14.01,2013-07-31 19:08:00,
2013-07-31 14:13:00,91.4,64.4,30.21,East,90,6.5,9.6,41,0.00,,---,0.00,VWS V14.01,2013-07-31 19:13:00,
2013-07-31 14:18:00,91.9,66.3,30.21,East,90,6.0,6.7,43,0.00,,---,0.00,VWS V14.01,2013-07-31 19:18:00,
2013-07-31 14:23:00,91.6,64.6,30.21,SSW,202,2.0,2.2,41,0.00,,---,0.00,VWS V14.01,2013-07-31 19:23:00,
2013-07-31 14:28:00,91.8,64.7,30.21,ENE,68,3.8,6.0,41,0.00,,---,0.00,VWS V14.01,2013-07-31 19:28:00,
2013-07-31 14:34:00,91.8,64.7,30.21,East,90,2.9,7.6,41,0.00,,---,0.00,VWS V14.01,2013-07-31 19:34:00,
2013-07-31 14:39:00,91.8,64.7,30.21,ESE,112,3.8,5.4,41,0.00,,---,0.00,VWS V14.01,2013-07-31 19:39:00,
2013-07-31 14:44:00,92.1,65.8,30.21,SE,135,3.6,5.6,42,0.00,,---,0.00,VWS V14.01,2013-07-31 19:44:00,
2013-07-31 14:49:00,91.6,64.6,30.21,East,90,0.0,3.6,41,0.00,,---,0.00,VWS V14.01,2013-07-31 19:49:00,
2013-07-31 14:54:00,93.9,66.7,30.21,NNE,22,3.1,3.8,41,0.00,,---,0.00,VWS V14.01,2013-07-31 19:54:00,
2013-07-31 14:59:00,93.2,65.3,30.21,East,90,4.9,4.9,40,0.00,,---,0.00,VWS V14.01,2013-07-31 19:59:00,
2013-07-31 15:04:00,92.8,65.0,30.21,ENE,68,4.9,6.3,40,0.00,,---,0.00,VWS V14.01,2013-07-31 20:04:00,
2013-07-31 15:09:00,92.7,65.5,30.21,SE,135,0.0,4.9,41,0.00,,---,0.00,VWS V14.01,2013-07-31 20:09:00,
2013-07-31 15:14:00,94.1,66.1,30.18,ENE,68,3.1,3.8,40,0.00,,---,0.00,VWS V14.01,2013-07-31 20:14:00,
2013-07-31 15:19:00,92.8,65.0,30.18,East,90,3.1,7.2,40,0.00,,---,0.00,VWS V14.01,2013-07-31 20:19:00,
2013-07-31 15:24:00,92.1,63.6,30.18,SSE,158,3.8,5.6,39,0.00,,---,0.00,VWS V14.01,2013-07-31 20:24:00,
2013-07-31 15:30:00,93.0,65.2,30.18,NE,45,1.6,4.0,40,0.00,,---,0.00,VWS V14.01,2013-07-31 20:30:00,
2013-07-31 15:35:00,93.2,65.3,30.18,East,90,3.6,4.7,40,0.00,,---,0.00,VWS V14.01,2013-07-31 20:35:00,
2013-07-31 15:40:00,92.8,65.0,30.15,NE,45,4.0,7.2,40,0.00,,---,0.00,VWS V14.01,2013-07-31 20:40:00,
2013-07-31 15:45:00,91.6,63.9,30.15,East,90,3.4,5.8,40,0.00,,---,0.00,VWS V14.01,2013-07-31 20:45:00,
2013-07-31 15:50:00,91.8,64.0,30.15,NE,45,4.9,4.9,40,0.00,,---,0.00,VWS V14.01,2013-07-31 20:50:00,
2013-07-31 15:55:00,93.4,64.7,30.15,ENE,68,1.6,4.0,39,0.00,,---,0.00,VWS V14.01,2013-07-31 20:55:00,
2013-07-31 16:00:00,93.4,65.5,30.15,East,90,3.1,7.2,40,0.00,,---,0.00,VWS V14.01,2013-07-31 21:00:00,
2013-07-31 16:05:00,91.9,63.5,30.15,NE,45,3.6,4.9,39,0.00,,---,0.00,VWS V14.01,2013-07-31 21:05:00,
2013-07-31 16:10:00,91.8,64.0,30.15,ENE,68,3.8,7.2,40,0.00,,---,0.00,VWS V14.01,2013-07-31 21:10:00,
2013-07-31 16:15:00,91.6,63.9,30.15,East,90,5.6,6.0,40,0.00,,---,0.00,VWS V14.01,2013-07-31 21:15:00,
2013-07-31 16:20:00,91.4,63.7,30.15,ENE,68,2.5,2.5,40,0.00,,---,0.00,VWS V14.01,2013-07-31 21:20:00,
2013-07-31 16:25:00,91.2,64.2,30.12,NNE,22,2.7,3.6,41,0.00,,---,0.00,VWS V14.01,2013-07-31 21:25:00,
2013-07-31 16:30:00,91.2,63.5,30.12,ENE,68,1.3,5.8,40,0.00,,---,0.00,VWS V14.01,2013-07-31 21:30:00,
2013-07-31 16:35:00,91.2,63.5,30.12,North,0,5.4,5.4,40,0.00,,---,0.00,VWS V14.01,2013-07-31 21:35:00,
2013-07-31 16:41:00,91.0,64.1,30.15,NE,45,5.6,5.6,41,0.00,,---,0.00,VWS V14.01,2013-07-31 21:41:00,
2013-07-31 16:46:00,90.7,64.5,30.15,NE,45,4.0,4.0,42,0.00,,---,0.00,VWS V14.01,2013-07-31 21:46:00,
2013-07-31 16:52:00,90.0,63.8,30.15,ENE,68,3.1,4.0,42,0.00,,---,0.00,VWS V14.01,2013-07-31 21:52:00,
2013-07-31 16:57:00,90.0,64.5,30.15,ENE,68,2.9,3.6,43,0.00,,---,0.00,VWS V14.01,2013-07-31 21:57:00,
2013-07-31 17:02:00,89.6,63.5,30.15,NE,45,3.4,3.4,42,0.00,,---,0.00,VWS V14.01,2013-07-31 22:02:00,
2013-07-31 17:07:00,89.1,63.0,30.15,NE,45,0.0,4.3,42,0.00,,---,0.00,VWS V14.01,2013-07-31 22:07:00,
2013-07-31 17:12:00,88.9,64.2,30.18,East,90,3.6,3.8,44,0.00,,---,0.00,VWS V14.01,2013-07-31 22:12:00,
2013-07-31 17:18:00,88.2,63.5,30.18,ENE,68,2.5,2.9,44,0.00,,---,0.00,VWS V14.01,2013-07-31 22:18:00,
2013-07-31 17:23:00,87.8,63.2,30.18,ENE,68,2.7,3.6,44,0.00,,---,0.00,VWS V14.01,2013-07-31 22:23:00,
2013-07-31 17:28:00,87.6,63.7,30.12,ENE,68,2.2,2.9,45,0.00,,---,0.00,VWS V14.01,2013-07-31 22:28:00,
2013-07-31 17:33:00,87.3,64.6,30.12,North,0,1.1,1.1,47,0.00,,---,0.00,VWS V14.01,2013-07-31 22:33:00,
2013-07-31 17:38:00,86.9,64.3,30.12,ENE,68,2.2,2.7,47,0.00,,---,0.00,VWS V14.01,2013-07-31 22:38:00,
2013-07-31 17:44:00,86.5,64.5,30.15,NE,45,2.9,2.9,48,0.00,,---,0.00,VWS V14.01,2013-07-31 22:44:00,
2013-07-31 17:49:00,86.0,65.2,30.15,NNE,22,1.1,1.1,50,0.00,,---,0.00,VWS V14.01,2013-07-31 22:49:00,
2013-07-31 17:54:00,85.8,66.2,30.15,NE,45,1.1,1.6,52,0.00,,---,0.00,VWS V14.01,2013-07-31 22:54:00,
2013-07-31 17:59:00,85.6,66.0,30.15,NE,45,1.6,2.5,52,0.00,,---,0.00,VWS V14.01,2013-07-31 22:59:00,
2013-07-31 18:04:00,85.3,66.2,30.15,NNE,22,1.6,2.0,53,0.00,,---,0.00,VWS V14.01,2013-07-31 23:04:00,
2013-07-31 18:09:00,84.9,65.3,30.15,NE,45,1.1,2.0,52,0.00,,---,0.00,VWS V14.01,2013-07-31 23:09:00,
2013-07-31 18:14:00,84.7,66.8,30.15,NE,45,0.0,0.0,55,0.00,,---,0.00,VWS V14.01,2013-07-31 23:14:00,
2013-07-31 18:19:00,84.4,66.5,30.15,NE,45,0.0,0.0,55,0.00,,---,0.00,VWS V14.01,2013-07-31 23:19:00,
2013-07-31 18:24:00,84.0,67.2,30.15,ENE,68,0.0,1.1,57,0.00,,---,0.00,VWS V14.01,2013-07-31 23:24:00,
2013-07-31 18:30:00,83.8,67.0,30.15,ENE,68,0.0,0.9,57,0.00,,---,0.00,VWS V14.01,2013-07-31 23:30:00,
2013-07-31 18:35:00,83.8,67.5,30.15,ENE,68,0.0,0.0,58,0.00,,---,0.00,VWS V14.01,2013-07-31 23:35:00,
2013-07-31 18:40:00,83.7,67.8,30.15,ENE,68,0.0,0.0,59,0.00,,---,0.00,VWS V14.01,2013-07-31 23:40:00,
2013-07-31 18:45:00,83.7,68.3,30.15,ENE,68,1.3,1.3,60,0.00,,---,0.00,VWS V14.01,2013-07-31 23:45:00,
2013-07-31 18:50:00,83.5,68.2,30.15,East,90,2.0,2.0,60,0.00,,---,0.00,VWS V14.01,2013-07-31 23:50:00,
2013-07-31 18:55:00,83.5,68.6,30.15,East,90,0.0,0.0,61,0.00,,---,0.00,VWS V14.01,2013-07-31 23:55:00,
2013-07-31 19:00:00,83.3,68.5,30.15,ENE,68,0.0,0.9,61,0.00,,---,0.00,VWS V14.01,2013-08-01 00:00:00,
2013-07-31 19:05:00,83.1,68.3,30.15,ENE,68,0.9,1.6,61,0.00,,---,0.00,VWS V14.01,2013-08-01 00:05:00,
2013-07-31 19:10:00,82.8,67.9,30.12,ENE,68,2.5,2.5,61,0.00,,---,0.00,VWS V14.01,2013-08-01 00:10:00,
2013-07-31 19:15:00,82.6,67.3,30.12,ENE,68,0.0,0.9,60,0.00,,---,0.00,VWS V14.01,2013-08-01 00:15:00,
2013-07-31 19:20:00,82.4,68.1,30.12,ENE,68,0.0,2.2,62,0.00,,---,0.00,VWS V14.01,2013-08-01 00:20:00,
2013-07-31 19:25:00,82.0,68.2,30.12,ENE,68,0.0,0.0,63,0.00,,---,0.00,VWS V14.01,2013-08-01 00:25:00,
2013-07-31 19:30:00,81.9,68.0,30.12,ENE,68,0.0,0.0,63,0.00,,---,0.00,VWS V14.01,2013-08-01 00:30:00,
2013-07-31 19:35:00,81.5,68.6,30.12,ENE,68,1.6,2.5,65,0.00,,---,0.00,VWS V14.01,2013-08-01 00:35:00,
2013-07-31 19:41:00,81.0,68.1,30.15,ENE,68,0.0,0.0,65,0.00,,---,0.00,VWS V14.01,2013-08-01 00:41:00,
2013-07-31 19:47:00,80.6,68.2,30.15,ENE,68,1.3,1.3,66,0.00,,---,0.00,VWS V14.01,2013-08-01 00:47:00,
2013-07-31 19:52:00,80.4,68.0,30.15,ENE,68,0.0,1.3,66,0.00,,---,0.00,VWS V14.01,2013-08-01 00:52:00,
2013-07-31 19:57:00,80.2,67.9,30.15,ENE,68,0.0,0.0,66,0.00,,---,0.00,VWS V14.01,2013-08-01 00:57:00,
2013-07-31 20:03:00,79.9,67.9,30.15,ENE,68,0.0,0.0,67,0.00,,---,0.00,VWS V14.01,2013-08-01 01:03:00,
2013-07-31 20:08:00,79.7,67.8,30.15,ENE,68,0.0,0.0,67,0.00,,---,0.00,VWS V14.01,2013-08-01 01:08:00,
2013-07-31 20:13:00,79.5,67.6,30.12,ENE,68,0.0,0.0,67,0.00,,---,0.00,VWS V14.01,2013-08-01 01:13:00,
2013-07-31 20:18:00,79.2,67.3,30.12,ENE,68,0.0,0.0,67,0.00,,---,0.00,VWS V14.01,2013-08-01 01:18:00,
2013-07-31 20:23:00,79.0,67.5,30.12,ENE,68,0.0,0.0,68,0.00,,---,0.00,VWS V14.01,2013-08-01 01:23:00,
2013-07-31 20:28:00,78.4,67.8,30.12,ENE,68,0.0,0.0,70,0.00,,---,0.00,VWS V14.01,2013-08-01 01:28:00,
2013-07-31 20:33:00,77.7,67.6,30.12,ENE,68,0.0,0.0,71,0.00,,---,0.00,VWS V14.01,2013-08-01 01:33:00,
2013-07-31 20:38:00,77.4,67.6,30.12,ENE,68,0.0,0.0,72,0.00,,---,0.00,VWS V14.01,2013-08-01 01:38:00,
2013-07-31 20:43:00,76.8,67.9,30.15,ENE,68,0.0,0.0,74,0.00,,---,0.00,VWS V14.01,2013-08-01 01:43:00,
2013-07-31 20:48:00,76.3,67.4,30.15,ENE,68,0.0,0.0,74,0.00,,---,0.00,VWS V14.01,2013-08-01 01:48:00,
2013-07-31 20:53:00,75.9,67.0,30.15,ENE,68,0.0,0.0,74,0.00,,---,0.00,VWS V14.01,2013-08-01 01:53:00,
2013-07-31 20:58:00,75.7,67.3,30.15,ENE,68,0.0,0.0,75,0.00,,---,0.00,VWS V14.01,2013-08-01 01:58:00,
2013-07-31 21:03:00,75.4,67.3,30.15,ENE,68,0.0,0.0,76,0.00,,---,0.00,VWS V14.01,2013-08-01 02:03:00,
2013-07-31 21:08:00,75.2,67.1,30.15,ENE,68,0.0,0.0,76,0.00,,---,0.00,VWS V14.01,2013-08-01 02:08:00,
2013-07-31 21:13:00,74.8,67.2,30.15,ENE,68,0.0,0.0,77,0.00,,---,0.00,VWS V14.01,2013-08-01 02:13:00,
2013-07-31 21:18:00,74.8,67.2,30.15,ENE,68,0.0,0.0,77,0.00,,---,0.00,VWS V14.01,2013-08-01 02:18:00,
2013-07-31 21:23:00,74.7,67.0,30.15,ENE,68,0.0,0.0,77,0.00,,---,0.00,VWS V14.01,2013-08-01 02:23:00,
2013-07-31 21:28:00,74.5,67.2,30.18,ENE,68,0.0,0.0,78,0.00,,---,0.00,VWS V14.01,2013-08-01 02:28:00,
2013-07-31 21:33:00,74.3,67.0,30.18,ENE,68,0.0,0.0,78,0.00,,---,0.00,VWS V14.01,2013-08-01 02:33:00,
2013-07-31 21:38:00,74.1,66.8,30.18,ENE,68,0.0,0.0,78,0.00,,---,0.00,VWS V14.01,2013-08-01 02:38:00,
2013-07-31 21:43:00,74.1,67.2,30.21,ENE,68,0.0,0.0,79,0.00,,---,0.00,VWS V14.01,2013-08-01 02:43:00,
2013-07-31 21:48:00,73.9,67.4,30.21,ENE,68,0.0,0.0,80,0.00,,---,0.00,VWS V14.01,2013-08-01 02:48:00,
2013-07-31 21:53:00,73.8,67.2,30.21,ENE,68,0.0,0.0,80,0.00,,---,0.00,VWS V14.01,2013-08-01 02:53:00,
2013-07-31 21:58:00,73.8,67.2,30.21,ENE,68,0.0,0.0,80,0.00,,---,0.00,VWS V14.01,2013-08-01 02:58:00,
2013-07-31 22:03:00,73.6,67.4,30.21,ENE,68,0.0,0.0,81,0.00,,---,0.00,VWS V14.01,2013-08-01 03:03:00,
2013-07-31 22:08:00,73.6,67.8,30.21,ENE,68,0.0,0.0,82,0.00,,---,0.00,VWS V14.01,2013-08-01 03:08:00,
2013-07-31 22:13:00,73.8,67.9,30.21,ENE,68,0.0,0.0,82,0.00,,---,0.00,VWS V14.01,2013-08-01 03:13:00,
2013-07-31 22:18:00,73.6,67.8,30.21,ENE,68,0.0,0.0,82,0.00,,---,0.00,VWS V14.01,2013-08-01 03:18:00,
2013-07-31 22:23:00,73.4,67.9,30.21,ENE,68,0.0,0.0,83,0.00,,---,0.00,VWS V14.01,2013-08-01 03:23:00,
2013-07-31 22:28:00,73.0,68.3,30.21,ENE,68,0.0,0.0,85,0.00,,---,0.00,VWS V14.01,2013-08-01 03:28:00,
2013-07-31 22:34:00,72.9,68.1,30.21,ENE,68,0.0,0.0,85,0.00,,---,0.00,VWS V14.01,2013-08-01 03:34:00,
2013-07-31 22:39:00,72.7,68.3,30.21,ENE,68,0.0,0.0,86,0.00,,---,0.00,VWS V14.01,2013-08-01 03:39:00,
2013-07-31 22:44:00,72.3,67.9,30.21,ENE,68,0.0,0.0,86,0.00,,---,0.00,VWS V14.01,2013-08-01 03:44:00,
2013-07-31 22:50:00,72.0,67.6,30.21,ENE,68,0.0,0.0,86,0.00,,---,0.00,VWS V14.01,2013-08-01 03:50:00,
2013-07-31 22:55:00,72.0,67.9,30.21,ENE,68,0.0,0.0,87,0.00,,---,0.00,VWS V14.01,2013-08-01 03:55:00,
2013-07-31 23:00:00,71.8,67.7,30.21,ENE,68,0.0,0.0,87,0.00,,---,0.00,VWS V14.01,2013-08-01 04:00:00,
2013-07-31 23:01:00,71.8,67.7,30.21,ENE,68,0.0,0.0,87,0.00,,---,0.00,VWS V14.01,2013-08-01 04:01:00,
2013-07-31 23:03:00,71.8,68.0,30.21,ENE,68,0.0,0.0,88,0.00,,---,0.00,VWS V14.01,2013-08-01 04:03:00,
2013-07-31 23:07:00,71.6,68.2,30.21,ENE,68,0.0,0.0,89,0.00,,---,0.00,VWS V14.01,2013-08-01 04:07:00,
2013-07-31 23:12:00,71.2,67.8,30.21,ENE,68,0.0,0.0,89,0.00,,---,0.00,VWS V14.01,2013-08-01 04:12:00,
2013-07-31 23:13:00,71.2,67.8,30.21,ENE,68,0.0,0.0,89,0.00,,---,0.00,VWS V14.01,2013-08-01 04:13:00,
2013-07-31 23:17:00,71.2,68.2,30.21,ENE,68,0.0,0.0,90,0.00,,---,0.00,VWS V14.01,2013-08-01 04:17:00,
2013-07-31 23:22:00,71.1,68.0,30.21,ENE,68,0.0,0.0,90,0.00,,---,0.00,VWS V14.01,2013-08-01 04:22:00,
2013-07-31 23:27:00,71.1,68.0,30.21,ENE,68,0.0,0.0,90,0.00,,---,0.00,VWS V14.01,2013-08-01 04:27:00,
2013-07-31 23:32:00,70.9,67.8,30.21,ENE,68,0.0,0.0,90,0.00,,---,0.00,VWS V14.01,2013-08-01 04:32:00,
2013-07-31 23:37:00,70.9,67.8,30.21,ENE,68,0.0,0.0,90,0.00,,---,0.00,VWS V14.01,2013-08-01 04:37:00,
2013-07-31 23:43:00,70.9,68.1,30.18,ENE,68,0.0,0.0,91,0.00,,---,0.00,VWS V14.01,2013-08-01 04:43:00,
2013-07-31 23:49:00,70.7,67.9,30.18,ENE,68,0.0,0.0,91,0.00,,---,0.00,VWS V14.01,2013-08-01 04:49:00,
2013-07-31 23:54:00,70.5,67.8,30.18,ENE,68,0.0,0.0,91,0.00,,---,0.00,VWS V14.01,2013-08-01 04:54:00,
2013-07-31 23:59:00,70.5,67.8,30.18,ENE,68,0.0,0.0,91,0.00,,---,0.00,VWS V14.01,2013-08-01 04:59:00,